Theta_e
315 316 317 318 319 318 317 317 318 318 319 319 320 320 320 320 321 321 321 322 322 323 323 324 325 325 326 326 327 327 324 326 324 321 317 316 323 338 339 341 340 338 335 317 316 312 308 309 309 311 312 314 314 312 314 318 313 312 304 299 296 297 294 298 298 299 301 299 299 301 302 302 300 303 304 305 303 303 303 302 303 304 304 305 305 307 308 309
315 315 315 316 318 318 317 316 317 318 318 319 319 319 319 320 321 321 321 321 322 322 323 324 325 326 325 326 326 325 323 325 321 316 314 325 338 340 340 338 338 336 330 317 311 309 307 308 308 308 308 307 315 310 315 314 315 309 300 297 295 295 297 301 301 301 300 299 302 301 302 301 300 302 302 300 300 301 300 301 302 301 303 304 305 305 306 307
315 314 314 315 316 316 316 316 317 317 318 318 318 319 319 319 320 321 321 321 322 322 323 324 325 325 325 325 325 324 324 329 319 314 321 336 339 339 340 339 336 334 319 312 310 310 308 308 307 306 309 303 309 308 311 310 310 307 301 298 296 300 299 302 303 302 303 303 301 301 301 300 302 302 304 300 298 301 299 298 301 301 300 301 303 304 305 306
316 315 315 315 316 315 316 316 316 317 317 318 318 318 318 319 319 321 321 321 322 322 323 323 324 325 324 325 325 323 326 326 311 313 328 337 338 341 336 334 334 329 321 316 311 311 310 310 308 308 309 305 306 308 306 309 306 306 302 297 300 299 298 300 303 303 302 302 302 301 301 299 302 302 303 301 297 299 298 299 300 300 300 301 302 303 304 305
315 316 316 315 316 316 316 316 316 316 317 317 318 318 318 319 319 320 321 321 322 322 323 324 324 324 324 325 323 323 323 309 308 322 322 336 339 337 334 332 331 320 316 312 312 313 310 308 308 309 311 301 305 305 301 307 308 305 299 302 301 300 299 301 302 302 301 302 301 301 298 301 303 303 301 301 297 296 298 300 300 301 301 301 301 302 304 304
314 314 315 315 315 315 315 316 316 317 316 317 317 318 318 318 319 320 320 321 322 322 323 323 324 323 324 323 320 325 322 294 307 322 332 334 337 333 332 328 329 319 314 312 311 311 308 308 309 306 302 300 300 298 302 303 308 299 301 301 302 300 301 303 303 302 300 301 301 300 302 302 301 300 303 301 300 298 301 301 301 301 302 302 302 303 302 303
314 315 315 315 314 314 314 316 316 316 316 316 318 318 318 318 319 319 320 321 322 322 322 323 323 324 322 322 325 314 314 312 320 326 330 332 331 331 328 329 326 315 312 311 311 310 311 305 306 306 302 301 300 300 302 303 307 302 298 301 301 302 302 304 302 301 300 301 301 302 302 300 300 297 302 300 300 300 301 302 301 301 302 303 301 301 302 302
316 315 315 314 315 315 315 316 316 316 316 317 317 318 318 318 319 320 320 321 321 322 322 322 322 323 321 324 325 315 317 308 318 325 324 329 327 321 324 320 316 320 312 310 309 308 307 304 303 305 301 299 301 301 303 302 303 300 300 302 301 302 303 302 301 300 301 300 302 301 299 299 300 300 300 299 299 300 300 301 301 301 301 301 301 301 301 301
315 315 315 315 315 315 315 316 316 316 316 316 317 317 318 318 319 319 320 320 321 321 322 322 322 322 322 319 317 306 306 322 325 325 327 325 316 314 321 317 314 313 311 312 311 310 311 307 306 304 299 301 303 302 302 299 298 301 300 302 301 301 303 301 301 301 300 302 302 299 298 300 301 300 299 299 300 300 301 300 301 301 300 300 300 300 300 300
315 315 315 315 315 315 315 316 316 317 317 317 316 317 317 318 319 319 320 321 321 321 321 322 322 321 316 321 319 300 319 319 323 324 322 321 314 316 315 318 313 312 311 311 312 310 310 306 308 309 309 304 306 301 302 302 298 302 301 301 300 302 302 302 301 302 302 301 300 298 298 300 300 299 293 299 300 300 300 300 300 300 298 299 299 300 300 300
315 315 315 315 316 315 316 316 316 316 317 317 316 317 317 317 318 320 320 320 321 321 321 322 322 320 320 314 308 299 323 323 327 319 317 321 314 312 317 317 314 314 311 313 311 309 309 309 311 309 311 301 303 301 302 300 302 303 301 300 300 301 302 302 301 302 301 300 300 300 298 299 299 298 295 298 299 300 299 299 299 299 298 298 299 299 300 299
316 316 315 316 316 316 317 318 317 317 317 316 316 316 317 317 319 320 320 320 321 321 322 321 321 316 314 310 304 307 315 325 325 317 319 317 317 319 319 314 312 320 312 310 316 317 316 314 311 306 301 306 298 302 301 303 302 302 301 296 300 301 300 301 300 301 301 299 300 301 297 295 294 294 297 299 299 300 299 299 299 299 298 298 298 298 298 297
317 317 316 316 316 316 317 319 319 318 317 317 316 316 316 318 319 319 320 320 321 321 321 321 318 318 318 304 307 311 316 322 320 317 319 317 315 314 315 318 317 312 313 312 312 317 317 312 312 304 309 305 303 298 302 303 302 302 300 297 297 297 297 302 302 300 298 299 299 299 288 292 295 297 297 299 299 299 299 297 297 297 297 297 298 297 297 298
317 317 317 317 316 317 318 319 320 318 318 317 317 316 316 318 319 319 320 320 321 322 321 322 320 314 313 304 310 318 321 320 317 316 317 317 315 319 317 319 320 314 320 315 314 313 316 309 313 307 311 304 301 306 302 301 303 295 300 299 293 292 292 299 300 298 297 298 298 299 290 291 295 296 298 298 299 298 297 297 297 297 297 297 298 297 297 298
318 317 317 317 317 317 318 319 319 318 317 317 316 316 316 317 319 320 320 320 322 322 321 320 319 319 305 304 316 318 327 322 314 316 318 314 313 314 313 316 313 315 311 311 314 313 311 316 313 305 301 305 306 301 297 298 298 297 294 291 294 292 295 297 300 298 296 296 298 297 290 293 295 296 297 298 298 299 297 297 297 297 296 297 297 297 297 297
318 318 318 317 317 317 317 319 318 318 317 317 315 315 316 318 320 320 321 320 322 321 321 318 321 314 304 302 313 326 322 310 311 317 315 320 319 316 313 312 313 311 311 309 311 314 311 313 305 304 301 303 300 296 295 295 296 296 293 291 293 293 294 295 298 300 301 297 298 296 291 295 294 297 297 298 298 298 297 297 297 297 297 297 296 296 296 297
318 318 317 317 317 317 318 318 318 318 318 317 316 316 318 319 321 321 321 321 320 320 319 316 313 311 299 312 317 312 310 316 318 319 317 317 317 314 311 311 309 308 312 309 313 313 309 306 306 303 305 298 298 300 292 290 291 293 295 291 295 293 294 292 296 299 300 297 293 296 292 294 295 296 297 297 298 297 296 297 297 296 295 296 295 296 296 297
318 318 318 317 317 317 317 317 319 319 318 317 316 317 317 320 322 321 320 319 322 320 318 320 313 312 304 306 302 305 315 312 319 315 316 314 314 311 311 307 308 307 307 305 311 304 307 302 302 297 299 298 297 295 289 286 292 291 293 291 293 296 296 294 292 296 298 297 294 294 293 295 295 296 296 297 298 297 296 297 296 296 295 295 296 295 296 296
319 318 318 317 317 316 316 318 319 319 318 318 319 320 321 321 319 319 318 317 313 307 302 303 305 293 293 304 309 311 317 315 316 315 309 312 316 312 313 311 311 305 302 300 301 303 304 303 304 297 293 294 295 296 294 295 298 295 296 295 294 292 293 293 296 297 298 294 293 294 293 295 296 294 295 296 297 296 296 297 296 296 295 295 295 295 295 295
319 318 318 317 317 317 317 319 319 319 318 316 317 318 318 312 313 310 313 313 307 305 303 306 307 306 305 307 308 310 314 318 307 313 313 316 311 309 307 307 310 306 301 297 301 300 304 295 292 291 295 297 299 299 299 299 299 298 298 296 294 294 294 298 295 298 297 296 294 295 295 295 297 296 295 296 296 296 296 295 295 294 294 294 294 295 295 295
319 319 318 318 317 317 317 318 319 319 318 316 316 314 308 304 301 297 306 308 311 310 308 308 308 306 305 309 310 308 304 305 311 311 311 314 310 307 303 304 301 298 299 302 301 302 304 294 294 298 299 300 300 301 300 299 298 297 296 294 292 295 292 297 296 296 298 295 293 295 294 296 297 299 296 296 295 294 295 295 294 294 294 294 294 294 294 294
319 319 319 318 317 317 318 319 319 319 318 317 315 311 313 309 311 309 308 301 309 311 311 309 310 308 309 311 311 313 313 304 307 309 315 311 306 302 302 302 299 296 300 301 300 296 294 292 297 300 302 302 301 300 299 298 297 296 293 293 291 292 296 298 295 296 296 295 291 294 294 295 297 299 296 295 294 296 297 296 296 295 294 294 294 294 294 293
319 319 319 319 318 319 319 319 319 319 316 313 310 311 312 312 318 319 313 305 302 311 310 309 307 306 307 310 310 311 304 302 300 306 307 310 304 303 302 299 298 299 300 300 295 294 291 295 299 302 301 300 299 299 298 298 298 294 294 290 289 294 294 290 292 296 295 294 293 293 293 295 298 299 298 296 296 295 298 297 298 296 294 294 294 294 293 293
319 319 319 318 319 319 319 319 320 316 313 314 312 312 318 320 320 319 311 302 299 305 308 310 310 308 307 305 310 307 304 304 305 304 311 307 302 304 303 300 298 298 297 299 298 296 294 299 302 301 300 299 297 297 296 293 291 295 295 292 292 294 294 293 292 293 294 295 295 293 291 292 295 295 297 294 294 293 293 293 293 293 295 295 295 294 294 294
319 318 318 318 318 319 319 320 314 312 315 314 312 317 318 318 321 319 310 301 301 302 315 311 314 312 311 316 311 305 305 306 306 309 309 307 304 302 301 304 300 296 298 299 298 297 297 301 303 300 299 298 298 295 295 295 290 292 295 295 295 296 294 295 297 294 291 290 293 292 283 285 294 295 296 291 289 291 291 291 291 292 292 292 291 292 293 295
319 318 318 318 318 319 321 312 312 315 313 310 314 318 319 321 321 317 308 297 290 301 306 301 313 306 315 304 308 307 305 300 308 309 309 309 311 305 302 300 301 295 298 298 298 297 297 301 301 299 298 298 297 295 297 296 292 290 292 298 297 296 296 296 294 293 284 282 291 294 284 283 292 293 293 289 290 290 290 290 291 292 292 291 291 292 291 293
319 318 318 319 319 319 312 306 316 315 308 309 316 319 320 321 323 315 298 291 287 301 299 310 306 304 316 306 307 307 293 296 307 308 307 311 306 310 299 298 299 300 301 302 296 292 298 296 297 298 298 296 294 292 297 296 292 289 297 299 299 297 296 295 295 293 290 294 295 292 291 283 285 292 293 290 290 290 289 289 291 291 291 291 291 292 291 291
319 319 318 319 318 317 313 316 313 310 310 314 321 319 320 319 321 314 300 282 282 305 299 298 307 311 311 306 308 302 301 304 300 302 305 310 307 303 300 298 297 297 298 298 288 298 297 294 297 296 295 294 293 296 299 298 294 294 296 299 296 298 297 296 294 290 289 287 284 286 291 283 283 290 292 291 288 289 289 289 290 291 291 291 291 292 291 292
319 318 318 318 318 318 318 317 313 310 317 318 320 319 317 318 314 301 291 281 303 301 313 300 313 310 306 307 303 303 301 303 298 300 305 307 306 302 296 299 299 298 299 299 293 297 298 297 299 299 295 293 296 296 299 299 294 296 298 298 296 297 295 296 290 288 287 286 283 285 290 283 285 290 288 290 289 289 290 290 290 291 290 290 291 291 292 292
319 318 318 318 317 316 315 317 316 318 317 318 318 316 315 312 304 292 284 279 303 292 301 302 302 299 303 299 299 301 299 298 299 299 302 300 303 305 300 304 300 298 296 299 297 298 296 296 298 298 296 298 294 294 295 298 297 298 298 295 293 292 290 290 290 287 284 282 284 289 291 288 283 289 289 288 289 293 293 291 291 291 290 291 291 291 291 291
318 318 317 317 312 314 315 310 316 316 317 316 315 313 310 306 293 287 280 290 299 300 300 297 297 303 298 296 294 298 300 296 297 299 296 300 297 299 300 297 304 296 291 292 291 296 296 297 297 298 298 297 297 293 295 296 297 297 293 290 290 287 287 285 285 286 280 281 284 289 290 290 281 284 291 293 294 294 295 291 291 290 290 290 291 291 291 291
318 318 318 316 317 319 310 309 316 316 315 315 313 307 303 288 294 284 285 304 291 296 295 294 299 298 298 300 298 295 295 296 297 297 295 294 293 293 294 291 293 287 287 287 288 292 290 292 296 296 298 298 296 293 291 294 295 295 292 290 285 282 281 278 281 278 279 280 281 285 290 285 286 291 291 292 293 292 294 294 292 291 290 290 290 291 290 290
318 317 317 317 316 316 317 319 316 315 315 314 309 305 295 287 281 289 291 294 292 300 296 301 297 297 298 297 296 297 299 293 297 296 297 296 294 294 297 296 297 293 286 289 288 286 289 294 296 295 296 297 299 291 286 285 289 292 290 286 283 281 279 276 278 280 280 282 283 284 287 284 287 289 297 296 290 292 291 294 293 292 291 291 290 290 290 290
318 318 315 316 317 317 318 317 316 315 313 311 304 299 294 284 284 296 293 295 296 300 300 298 298 299 298 294 296 297 292 297 295 295 296 293 293 290 293 296 297 295 294 290 286 288 283 284 291 293 288 297 298 297 295 292 290 292 294 291 287 286 280 276 280 278 279 280 281 284 282 280 281 286 287 288 289 289 290 292 293 292 292 291 291 290 290 290
318 317 317 316 316 318 318 317 315 315 312 307 299 293 284 284 290 290 291 295 299 299 298 301 296 296 294 296 300 298 298 292 296 295 294 293 290 291 291 292 296 297 295 288 291 287 288 289 295 298 296 297 295 299 300 294 289 291 294 294 288 286 288 284 282 281 279 279 277 278 281 283 286 288 288 288 288 289 290 291 291 290 291 290 290 289 289 289
316 315 317 314 313 316 319 316 315 315 310 302 294 287 285 290 287 295 293 302 300 296 296 298 297 293 293 293 297 296 301 295 295 294 292 294 294 292 296 296 295 297 294 289 291 285 288 286 293 295 296 295 296 298 299 298 285 289 291 287 289 293 292 285 281 280 280 279 278 283 282 284 288 287 287 287 287 287 288 289 289 290 290 289 289 289 289 289
313 315 310 313 314 318 318 316 315 313 308 300 291 285 291 293 300 299 301 298 299 299 296 290 292 292 291 291 292 295 296 298 294 293 288 294 291 296 295 297 299 297 299 296 291 297 288 290 291 292 291 293 291 293 299 297 297 291 284 289 293 295 292 286 281 280 279 278 281 281 281 280 282 283 285 285 284 285 287 288 289 289 289 288 289 289 289 289
312 312 312 312 315 319 318 316 314 310 305 297 288 291 296 292 301 300 304 302 301 300 295 292 294 297 293 293 292 294 296 293 292 292 289 293 289 300 296 296 300 299 300 301 294 294 297 287 289 292 292 292 294 296 295 296 295 291 288 296 290 282 282 284 283 279 277 279 281 280 282 283 285 286 282 284 285 285 286 288 288 288 288 288 288 289 289 288
313 310 305 312 319 319 317 315 312 306 300 291 287 287 295 296 302 300 303 303 304 299 294 295 293 297 296 293 295 295 295 290 293 290 289 291 288 298 297 299 297 300 301 301 296 294 295 288 287 289 291 292 292 292 285 287 294 294 294 289 294 287 283 282 285 282 283 280 278 282 281 282 287 289 287 288 288 288 287 287 288 289 289 289 289 289 289 288
308 304 302 317 320 320 317 313 307 303 297 288 288 289 298 295 300 302 302 301 300 298 296 295 298 294 296 296 298 293 296 295 293 292 292 294 293 300 297 301 299 299 300 301 298 299 291 293 286 285 290 291 283 287 288 290 287 285 285 283 288 285 288 286 286 285 282 279 280 279 279 283 288 294 291 292 291 290 288 288 289 290 290 290 290 289 289 289
311 304 305 318 319 319 314 307 300 295 294 295 294 293 297 296 300 301 302 303 302 307 300 298 297 294 295 294 295 298 294 294 294 292 293 295 295 289 299 300 301 298 300 298 297 295 290 287 287 283 282 283 286 292 293 294 293 291 289 287 289 287 284 281 281 287 285 282 280 280 280 282 291 292 293 294 293 292 291 290 290 290 290 290 290 290 290 289
305 296 302 318 318 315 307 296 296 299 296 292 290 294 294 303 300 299 301 302 302 299 305 301 300 299 297 296 297 294 294 293 294 293 294 292 297 296 299 303 301 301 297 292 294 299 296 290 289 283 284 286 290 292 293 292 291 292 291 289 292 289 287 284 281 283 284 285 282 280 278 284 289 290 289 289 292 293 292 291 289 291 290 291 291 291 290 290
301 300 312 317 317 312 303 295 297 296 294 296 301 299 301 299 298 301 299 301 299 301 300 299 298 296 298 299 297 295 296 291 294 293 295 295 296 299 303 302 303 299 300 291 297 294 294 288 286 287 288 290 289 292 293 292 293 289 289 291 289 288 290 288 287 284 283 283 281 281 279 284 288 288 287 286 286 288 291 292 291 291 291 291 291 290 290 290
303 303 305 314 316 312 301 290 290 292 294 297 296 296 300 299 298 298 299 301 298 298 296 297 300 300 297 300 298 296 298 289 295 295 293 297 295 297 299 302 301 297 297 294 293 296 290 288 288 285 283 283 285 288 287 289 289 284 285 290 291 291 289 287 285 286 283 285 284 282 278 282 284 286 287 286 286 288 289 291 292 291 290 291 291 291 291 290
303 304 304 306 312 309 297 299 295 292 293 293 293 292 294 296 299 299 299 299 301 299 298 296 298 300 297 298 295 295 297 295 290 296 297 295 296 296 297 298 299 298 299 294 297 300 292 289 288 283 281 279 278 278 280 282 285 287 287 288 291 291 290 287 284 286 282 286 285 283 283 284 286 287 288 287 286 285 288 289 290 291 291 290 290 290 290 289
297 290 298 300 303 302 303 305 301 296 293 292 291 293 295 293 297 300 301 299 302 300 300 300 300 300 297 295 293 294 294 297 294 288 291 292 292 292 292 294 294 293 294 295 296 298 287 289 291 289 287 285 287 286 289 289 285 283 285 287 289 291 292 290 288 285 283 285 284 287 288 284 283 286 286 286 286 286 287 287 289 290 289 290 290 290 290 289
302 294 294 289 300 299 296 299 298 298 292 296 288 293 291 293 295 297 301 295 300 300 299 299 298 295 294 295 293 293 295 294 293 291 291 291 292 290 294 292 293 292 294 293 292 290 286 287 289 290 290 291 293 292 293 290 286 287 286 286 288 289 289 288 286 285 288 285 283 289 288 287 286 286 287 288 287 287 288 288 288 288 290 290 289 288 289 287
293 297 300 301 294 289 292 293 297 296 297 296 292 296 292 292 293 291 297 298 300 301 295 296 298 298 296 295 295 290 292 292 292 290 293 291 290 291 289 294 290 292 292 289 291 291 287 287 290 290 289 292 293 293 294 291 290 288 288 288 286 288 288 287 287 290 288 286 285 289 289 288 289 288 289 290 290 290 290 289 289 289 289 287 287 288 288 288
298 296 298 302 293 294 296 298 298 296 296 296 292 294 291 292 291 294 294 294 296 296 298 290 294 297 297 297 295 291 291 288 288 292 291 289 289 287 287 289 290 291 291 288 290 288 289 287 288 288 288 289 290 291 291 290 290 290 289 288 289 288 288 288 289 290 290 288 290 287 287 288 291 290 290 291 292 291 288 289 288 288 287 287 287 287 287 287
292 294 290 297 296 296 296 295 294 294 289 294 289 290 293 292 291 294 296 294 289 292 299 293 294 295 297 296 296 291 293 294 293 289 293 291 289 289 288 290 287 286 288 287 288 289 290 287 290 288 286 286 288 289 288 288 288 287 290 291 290 289 288 289 289 289 289 289 290 289 287 286 291 291 291 291 290 289 288 288 288 287 287 286 287 286 286 286
296 294 296 293 290 292 294 294 293 291 289 288 289 290 291 292 291 295 294 298 294 291 295 293 295 294 294 295 295 295 297 296 295 295 294 293 290 293 290 288 291 286 287 287 287 288 289 285 286 286 283 284 288 287 287 286 285 285 286 287 289 289 286 287 287 289 288 287 288 288 287 287 289 289 288 287 289 289 288 288 288 287 287 286 286 286 286 286
296 298 297 295 288 294 291 291 293 291 287 290 291 291 291 291 294 295 289 295 296 297 297 296 296 294 291 292 292 296 299 299 298 294 296 296 296 293 295 293 293 288 287 287 287 286 286 286 285 285 282 283 287 287 286 286 285 283 284 287 289 290 290 290 290 290 290 291 287 286 287 291 290 290 289 290 288 289 289 289 289 287 286 286 286 286 287 287
Wind_Speed
3 4 4 4 4 4 5 5 5 6 6 7 7 8 8 8 8 9 9 9 9 10 10 11 11 11 11 12 12 12 14 4 4 4 1 2 2 5 4 4 3 4 3 4 6 6 4 2 1 1 2 1 0 1 1 0 1 0 0 1 3 1 4 1 3 3 6 4 4 3 2 1 5 3 1 1 1 4 8 9 6 9 10 6 3 3 3 4
1 2 2 4 4 4 5 5 6 6 6 7 8 8 8 9 9 9 9 10 10 10 11 11 11 12 12 12 13 13 10 3 4 1 4 2 2 4 3 2 3 2 2 3 3 4 6 2 2 3 3 0 1 0 0 0 0 0 2 1 1 3 0 3 3 5 1 5 4 4 2 2 4 1 1 1 3 5 7 5 7 8 7 6 5 4 4 5
1 1 1 2 3 5 5 5 6 6 7 7 7 8 9 9 9 10 10 10 10 11 11 12 13 13 13 12 12 12 7 2 3 3 3 3 3 3 2 1 2 1 2 4 5 4 4 4 4 4 2 1 0 1 1 0 1 0 1 2 3 3 4 4 5 4 6 2 3 3 3 2 3 1 1 1 3 3 3 6 6 5 5 4 4 4 4 5
1 1 1 1 3 3 4 4 4 6 6 7 7 8 8 9 10 10 10 11 11 11 12 13 13 13 11 11 11 8 3 3 2 2 2 5 3 2 2 1 3 4 5 6 3 4 2 3 3 2 2 2 1 1 1 1 1 1 1 2 1 1 1 3 5 5 4 6 3 2 2 2 3 2 0 2 2 4 4 5 3 5 4 4 4 4 4 5
3 3 2 3 3 4 4 5 5 5 6 6 7 8 8 8 10 10 11 11 12 13 13 13 14 13 13 11 12 5 2 1 1 2 3 4 2 1 1 3 3 4 6 4 5 1 3 4 2 2 0 1 3 1 2 1 2 2 2 2 2 2 2 4 6 6 3 3 2 2 2 1 1 2 2 1 2 2 1 1 4 4 4 4 3 4 4 5
2 3 3 4 4 4 5 5 5 5 5 6 6 7 8 9 10 11 12 12 13 13 14 14 14 14 14 14 7 3 2 1 3 3 2 5 1 2 2 3 6 5 5 5 2 2 4 2 1 2 2 2 2 1 0 1 0 1 1 3 3 2 1 1 4 2 2 0 0 1 1 2 1 2 1 3 2 4 3 4 4 4 4 3 3 4 4 4
3 4 4 3 4 4 5 5 5 6 6 6 7 8 8 10 11 12 13 13 13 14 14 14 14 15 16 13 2 3 1 1 3 1 1 3 0 2 1 4 4 3 3 4 1 2 1 4 2 1 3 2 1 1 3 1 1 1 0 2 3 3 2 1 3 3 0 1 1 1 0 1 1 4 0 4 4 7 5 4 4 4 3 3 5 4 5 4
5 4 5 4 4 5 5 6 6 7 7 8 8 9 10 10 11 12 12 13 13 14 14 14 14 14 15 4 1 1 2 2 2 3 2 3 4 3 3 2 2 2 3 3 4 3 3 3 3 3 2 2 1 2 1 2 3 3 0 2 2 1 0 2 4 2 1 3 1 3 1 4 3 2 1 6 7 6 6 4 4 4 4 4 4 3 4 4
6 6 5 5 4 5 6 7 7 7 7 8 9 10 10 10 10 11 12 13 14 14 14 14 14 13 11 3 2 3 0 1 2 2 5 4 2 2 3 1 2 2 2 1 1 3 2 1 1 4 3 5 3 3 1 2 1 3 3 2 2 1 2 4 3 4 4 2 2 2 5 5 4 6 1 9 7 7 6 5 4 4 4 4 3 4 3 4
7 7 6 6 5 5 5 6 7 8 8 8 8 9 10 10 10 11 12 13 13 13 13 13 13 14 6 2 1 2 1 2 2 2 1 2 3 2 2 3 1 1 2 2 2 3 1 3 3 3 3 3 0 1 1 1 0 2 3 2 3 5 2 4 5 5 7 4 5 4 4 5 3 3 2 3 9 8 6 6 4 4 4 3 3 3 3 4
8 8 8 7 6 6 5 5 5 6 8 9 9 9 9 10 11 11 12 13 13 12 12 11 11 10 3 2 1 3 1 2 1 2 2 2 3 3 1 2 2 2 3 1 2 4 5 3 3 2 1 1 2 2 1 2 1 1 2 4 6 7 6 3 5 6 3 2 5 4 5 2 1 2 3 9 7 8 7 6 5 4 4 4 4 3 3 4
9 8 8 8 8 8 8 7 6 7 7 8 9 8 9 9 10 11 12 13 12 11 11 10 9 3 4 3 3 2 3 1 1 3 1 1 2 2 2 3 3 3 3 3 2 3 3 3 4 1 1 3 1 1 1 1 1 1 2 3 5 3 7 9 8 6 5 1 2 4 3 4 4 5 5 10 8 7 7 7 5 5 4 4 3 3 3 3
9 8 8 8 8 9 9 9 9 6 4 4 7 9 8 9 10 11 12 12 10 10 10 8 6 3 2 3 2 1 3 1 1 4 2 2 3 2 2 1 1 1 3 2 2 2 2 3 2 3 2 0 3 0 1 1 1 1 4 3 5 5 8 10 7 4 4 2 5 5 2 7 11 5 7 7 8 6 7 5 4 4 4 3 4 3 3 2
9 9 8 8 8 9 10 11 8 5 5 5 7 8 8 9 9 10 11 11 12 10 7 7 3 3 1 3 1 2 1 1 3 4 3 3 4 1 2 1 0 1 0 2 2 1 1 1 2 2 0 1 0 1 1 2 1 2 2 3 3 3 3 3 5 6 4 2 5 3 3 5 6 6 6 6 7 8 6 6 5 5 4 4 3 4 4 3
11 10 10 9 8 10 10 9 5 4 5 6 6 6 7 8 8 10 10 10 7 6 8 6 3 2 3 1 2 2 4 4 4 3 3 4 4 2 2 2 3 1 3 3 1 1 0 1 1 1 1 0 1 1 2 3 3 3 1 4 3 4 0 3 5 8 6 1 4 4 2 6 5 5 6 6 7 6 6 6 5 5 4 5 4 4 5 5
12 11 9 9 8 9 9 5 5 5 6 6 6 6 8 10 11 11 10 8 11 8 5 2 3 2 3 5 1 1 1 3 4 5 2 3 3 1 4 3 3 3 3 2 1 0 1 1 2 1 2 1 2 2 3 3 3 4 6 3 3 4 3 1 4 5 1 5 2 7 3 4 1 5 5 4 7 6 5 6 6 6 6 5 4 4 5 5
13 12 11 9 7 9 8 6 7 8 6 5 6 7 9 11 11 9 9 9 5 3 2 2 0 4 4 1 3 3 5 2 1 2 2 1 1 5 4 4 2 3 2 2 1 1 1 2 1 1 2 2 2 3 1 3 4 4 4 5 4 5 2 3 1 2 3 5 4 6 5 6 2 8 7 7 8 8 6 7 6 6 5 4 4 4 5 5
13 12 11 9 8 9 9 6 9 9 6 5 7 6 6 7 9 9 7 3 3 3 4 5 3 1 6 4 5 2 5 5 3 4 3 1 2 3 3 3 3 3 4 3 1 2 2 1 2 2 1 3 3 4 5 5 6 5 3 4 5 6 7 4 3 5 4 5 4 6 9 10 4 7 8 9 8 8 8 7 7 7 6 5 5 4 4 4
14 13 11 10 8 9 7 7 10 7 6 8 10 11 11 11 4 4 3 3 3 2 1 4 4 6 2 5 4 6 3 4 5 4 2 2 1 2 1 2 3 6 3 3 3 4 2 1 1 1 4 5 7 8 8 8 4 7 6 1 3 3 2 2 2 3 5 5 5 5 6 6 4 6 5 5 8 8 7 5 6 6 6 5 5 4 4 4
14 13 13 11 9 8 7 7 10 8 7 6 5 4 2 1 1 2 3 6 7 6 3 6 11 1 5 6 5 2 4 3 3 3 4 3 3 3 3 3 2 3 3 3 4 5 5 4 4 6 8 9 7 8 9 8 6 7 1 3 5 5 5 3 4 2 2 1 6 6 5 6 7 7 10 10 6 6 6 7 6 6 6 6 5 5 5 4
15 14 13 11 10 8 8 10 10 8 5 5 7 3 3 2 3 3 4 8 11 10 12 6 11 12 4 7 4 8 6 1 2 3 4 3 3 7 5 4 4 4 5 5 5 1 1 5 8 9 10 8 7 8 10 8 8 6 3 4 5 2 6 5 3 2 1 0 2 3 5 8 7 5 8 6 7 9 9 8 8 7 7 6 6 6 5 6
15 15 14 13 11 10 11 11 9 8 4 5 5 4 3 2 1 0 0 3 7 16 13 13 8 7 4 5 7 4 2 4 2 5 2 3 6 7 5 6 7 6 5 5 4 2 4 10 9 10 8 6 7 8 5 7 6 5 4 2 3 6 5 2 6 2 1 2 5 5 9 9 9 8 7 12 14 10 11 10 9 10 8 6 6 7 6 7
14 14 14 13 12 11 13 9 7 6 4 4 4 5 3 1 1 1 2 3 7 6 12 11 12 12 6 5 4 0 5 6 6 8 7 4 6 6 7 7 7 6 6 9 7 5 6 7 12 9 7 8 7 2 2 2 2 2 2 2 6 3 3 2 0 1 1 2 2 3 8 9 8 9 7 12 11 3 2 3 3 7 9 8 7 7 8 7
15 15 15 14 12 12 13 10 8 5 6 7 6 4 2 1 1 3 2 3 5 6 10 12 14 11 12 9 7 8 10 5 6 10 7 7 10 4 4 9 8 7 8 9 11 10 11 3 5 11 9 8 6 4 3 3 4 4 5 5 4 4 5 6 1 2 3 4 4 5 8 11 9 11 10 3 4 5 2 4 2 3 3 5 5 6 6 8
17 16 15 14 13 11 11 8 5 5 6 8 9 5 3 3 0 2 1 3 5 5 5 9 7 5 6 4 10 8 6 5 8 6 11 12 8 3 6 4 3 8 7 8 10 11 12 7 1 5 8 7 4 5 6 4 5 5 6 9 7 5 6 4 1 3 1 3 6 6 4 4 7 14 12 5 2 3 3 4 4 4 2 5 6 5 5 6
18 17 16 16 14 14 9 6 5 7 9 9 3 2 3 1 2 1 1 2 8 3 3 6 5 6 7 4 6 5 4 10 8 6 13 10 5 4 3 6 4 8 9 7 10 6 5 2 6 5 4 4 5 5 4 8 6 3 3 3 10 8 5 3 5 3 3 3 2 0 5 7 4 7 2 5 7 7 4 7 6 7 7 5 6 6 5 6
19 18 18 17 17 14 7 6 8 9 7 8 6 4 2 2 1 2 1 1 9 5 7 0 5 2 2 10 10 7 3 5 6 10 9 5 9 0 7 6 3 2 1 1 0 6 5 3 2 4 5 5 5 7 4 10 5 4 1 3 1 0 1 2 2 3 6 2 1 3 3 7 11 10 3 7 7 8 7 8 8 8 8 8 7 8 7 6
20 19 19 18 19 18 4 5 11 11 9 2 2 6 3 3 1 1 1 1 5 5 5 3 1 4 1 12 13 12 1 12 5 4 3 0 1 1 4 9 10 9 4 3 12 1 7 6 6 5 5 6 9 7 4 8 5 2 0 4 2 2 0 1 1 3 3 3 6 4 2 4 7 3 7 11 4 7 11 12 11 10 9 9 9 9 9 8
21 20 20 19 19 20 11 2 8 10 4 3 5 6 5 4 1 2 3 7 1 2 4 6 4 1 6 11 12 6 6 2 0 2 2 1 4 1 7 10 5 6 9 10 10 2 2 2 7 10 7 8 3 2 1 8 7 1 2 5 4 3 1 0 1 2 3 2 9 5 6 5 15 4 3 3 4 6 12 13 12 12 11 11 10 9 10 9
21 21 21 20 13 12 10 6 5 2 7 6 6 7 6 4 2 4 4 8 3 2 2 2 2 10 11 14 10 7 4 3 3 2 2 3 2 2 2 2 1 4 5 9 11 1 2 2 1 1 5 2 4 2 4 2 3 6 4 4 2 1 1 0 1 0 2 9 10 7 9 7 10 2 9 9 8 11 6 4 6 8 9 9 8 11 10 11
21 21 22 21 13 9 7 8 7 6 8 8 8 8 6 3 4 5 6 5 3 3 3 4 4 10 13 13 9 3 3 5 3 6 4 1 1 3 1 1 1 2 1 2 5 3 2 2 0 1 3 4 4 3 5 2 5 7 2 3 3 0 3 0 0 2 3 11 4 13 10 12 10 2 3 4 1 5 9 10 13 13 13 12 10 11 11 10
23 24 25 18 10 9 15 11 11 7 9 10 9 9 7 7 2 7 6 4 2 4 10 5 5 9 13 10 10 12 11 6 8 8 10 9 8 10 12 11 9 6 8 9 8 2 5 5 2 3 6 4 3 5 2 2 1 3 5 5 6 2 2 2 2 5 8 10 1 3 12 5 19 11 1 2 1 4 2 10 15 15 14 12 11 12 10 10
23 23 24 17 13 9 8 6 12 9 11 12 11 7 5 5 9 10 5 9 4 3 4 6 10 11 12 10 9 7 7 9 9 8 6 4 8 10 9 10 9 9 6 8 6 3 5 6 8 4 1 5 6 9 3 0 6 7 8 8 6 3 4 5 4 3 3 4 1 0 2 8 2 4 13 12 2 1 3 2 12 15 16 15 13 11 10 10
24 22 15 15 15 12 7 10 10 11 10 6 11 5 0 4 8 13 18 13 4 1 6 3 10 8 14 11 10 12 7 3 11 8 10 6 9 9 10 12 9 11 0 4 11 11 4 2 8 10 6 9 12 14 14 5 9 11 6 10 10 8 3 4 6 8 6 3 0 2 5 6 5 7 4 4 2 3 4 2 8 8 10 10 9 9 10 10
21 18 14 12 13 14 12 13 14 15 11 10 9 10 12 12 6 10 13 11 3 4 2 6 9 10 11 7 4 11 4 4 8 7 8 9 11 11 11 14 17 9 3 2 4 3 14 7 3 18 1 14 15 9 5 6 3 6 6 2 5 10 1 8 0 0 1 1 2 2 6 2 6 1 2 2 3 2 3 5 9 10 10 11 11 12 12 11
16 12 13 9 13 15 13 12 17 16 13 11 10 8 13 14 8 6 3 6 6 3 6 4 3 7 6 7 1 10 4 3 8 6 6 10 7 9 10 4 12 16 10 13 4 4 2 5 3 5 2 14 13 5 7 9 6 5 5 10 7 1 5 4 2 1 1 2 10 4 5 6 2 1 3 2 3 1 1 5 7 10 11 11 11 11 11 11
8 9 7 10 14 12 12 11 12 13 13 14 13 12 13 5 2 2 2 9 11 8 5 7 8 8 6 8 5 7 2 4 6 6 6 4 7 13 7 10 11 15 17 9 2 1 7 2 2 3 3 1 1 2 3 1 0 7 5 6 4 4 3 3 5 1 2 7 8 8 10 3 4 9 4 4 4 4 4 5 8 8 10 12 11 11 12 12
5 4 8 12 11 14 15 14 14 11 11 12 14 15 3 7 5 4 2 3 8 10 8 9 3 11 6 8 8 10 5 7 9 6 4 11 6 8 13 6 10 15 19 11 5 2 1 3 3 1 4 2 3 1 1 2 4 3 4 1 9 3 4 3 2 8 2 7 6 3 5 8 12 10 3 7 8 9 9 7 9 11 12 12 11 11 10 9
1 2 4 12 11 15 16 18 16 13 8 10 11 10 6 12 6 6 4 5 4 7 11 10 7 6 8 8 6 11 12 10 11 9 6 6 8 8 16 11 8 15 14 13 7 3 1 5 1 3 2 1 0 3 9 4 1 1 0 2 2 2 2 7 9 1 3 8 3 10 5 13 9 8 14 13 15 14 12 10 13 15 16 14 13 14 14 14
3 2 5 5 16 15 14 15 11 11 10 15 11 11 5 10 9 12 9 6 3 7 8 6 6 6 9 9 7 7 10 11 12 10 10 4 7 4 11 12 6 10 15 16 10 4 3 2 6 0 5 5 3 6 10 13 12 4 1 3 2 1 1 2 2 5 4 3 6 7 9 6 4 9 14 15 17 15 18 18 15 14 14 14 14 15 15 15
4 3 2 9 18 17 14 9 9 12 11 5 11 12 8 7 8 10 14 10 3 3 1 5 7 10 6 4 11 8 5 9 7 7 8 5 10 3 6 11 8 10 7 8 10 4 2 3 9 3 1 7 3 5 11 11 15 15 16 14 15 11 6 3 9 3 3 3 7 5 15 3 1 5 5 11 12 15 18 19 16 14 14 15 13 13 14 14
6 8 4 11 15 19 15 16 7 7 6 12 15 12 7 2 2 10 8 10 10 5 3 1 3 3 6 11 6 4 6 8 9 8 8 11 7 7 5 12 11 12 13 10 13 9 7 2 3 5 8 10 7 0 1 1 2 2 5 5 7 5 4 4 8 6 4 8 3 2 3 11 1 3 4 2 4 12 13 13 12 13 14 14 13 14 14 13
8 8 3 15 18 20 11 11 9 8 7 6 3 3 2 4 6 6 10 9 9 9 3 4 7 4 5 4 5 5 8 4 9 10 6 10 9 7 4 17 9 11 10 1 2 1 6 2 2 5 3 0 2 1 0 1 0 3 3 0 5 11 14 14 10 3 6 3 4 3 6 6 2 4 4 3 3 4 6 9 11 11 11 11 12 13 14 12
6 7 2 5 17 15 15 12 10 10 8 4 9 7 8 3 8 8 12 14 10 8 12 7 1 7 2 1 0 4 5 4 8 12 8 6 5 2 6 5 14 8 10 8 9 7 4 2 5 1 3 1 1 1 2 1 1 2 2 8 11 7 5 1 2 1 2 11 10 8 16 6 2 1 2 1 4 5 5 6 8 9 8 10 10 10 11 11
2 1 2 3 9 15 13 9 10 9 11 11 8 13 8 5 7 14 11 10 9 7 5 9 11 3 5 2 0 2 2 9 3 5 9 5 4 3 5 5 4 8 2 2 4 9 6 7 9 9 13 14 11 11 10 7 10 5 4 4 5 10 13 7 9 9 9 11 10 8 12 1 2 1 1 2 3 4 2 4 5 7 10 11 8 9 11 12
6 6 4 4 4 5 8 10 12 12 12 11 10 11 13 11 5 9 11 9 9 7 9 1 1 7 5 1 7 10 11 4 4 1 1 4 1 2 3 6 6 1 3 5 4 7 2 2 11 14 16 17 16 1 1 9 4 8 10 13 16 15 12 9 6 5 17 6 8 18 15 2 3 4 3 4 4 5 5 4 7 8 7 7 8 10 10 11
5 8 5 4 1 10 7 1 8 10 11 14 9 6 13 16 9 4 11 6 11 13 8 10 2 7 9 12 14 14 13 9 1 1 6 3 2 1 3 3 3 6 4 3 6 5 2 3 13 17 19 20 17 6 2 14 12 14 13 15 17 15 16 14 14 20 8 6 15 16 6 13 9 6 7 7 6 5 6 6 5 5 9 12 11 7 8 7
6 4 9 3 5 5 11 14 5 10 11 17 10 8 13 16 13 8 7 14 6 10 7 3 11 14 16 17 14 10 11 13 8 11 10 3 1 0 1 1 0 1 3 1 3 3 5 11 13 11 16 19 14 6 1 4 7 8 13 16 18 18 16 17 22 22 7 13 22 8 12 15 12 11 11 11 11 12 13 14 12 7 6 6 9 11 12 13
1 3 1 3 5 2 9 6 10 10 11 14 7 12 11 15 18 17 10 9 10 7 16 8 16 21 17 13 11 10 12 7 13 16 9 5 9 4 2 1 1 3 3 1 0 1 2 8 6 4 13 14 14 13 6 5 3 4 7 13 16 18 23 25 25 22 20 17 19 6 7 12 8 10 11 10 9 8 5 7 8 10 10 10 10 11 12 11
2 2 2 2 1 1 2 5 5 4 6 7 9 11 13 16 19 14 7 7 6 12 13 19 18 16 16 15 14 12 15 19 16 10 7 7 1 5 6 7 3 2 1 4 3 2 4 7 5 3 6 14 15 10 6 6 5 12 10 7 13 18 21 22 20 21 18 17 20 13 6 8 4 5 7 4 6 8 8 10 11 10 10 10 11 11 11 11
1 3 2 2 4 5 5 4 6 9 6 3 7 4 7 11 15 13 11 10 14 10 12 20 24 16 8 11 14 16 19 14 11 11 4 11 13 9 8 4 9 5 3 4 3 1 4 5 4 4 7 14 14 11 10 5 2 6 12 15 18 17 16 14 18 19 14 19 21 15 12 14 2 5 4 5 7 11 11 9 9 8 10 10 11 11 10 11
2 0 2 1 4 4 8 4 5 5 9 7 8 7 6 12 10 5 3 3 6 9 9 16 16 8 8 11 15 22 19 9 7 3 4 4 1 2 6 4 9 10 7 7 2 5 6 4 5 5 10 13 12 4 13 9 6 10 17 28 24 13 11 15 16 14 17 18 13 12 21 7 5 4 6 1 4 5 6 8 6 6 8 11 12 12 12 12
Wind_Direction
22 1 0 15 21 16 14 10 1 355 349 356 354 353 355 354 353 353 353 350 345 344 343 339 340 339 338 339 341 335 329 314 309 280 255 85 284 312 320 298 318 309 344 316 284 255 270 201 283 34 259 172 253 15 272 227 24 310 247 205 267 195 73 346 12 83 160 114 152 119 7 322 132 170 85 73 185 243 97 90 95 77 78 94 88 66 50 50
49 10 347 348 1 7 9 3 357 352 353 352 352 349 350 348 348 347 348 346 346 341 338 338 339 342 342 341 341 336 334 299 299 359 58 2 281 337 336 341 322 14 310 277 315 347 325 4 58 309 280 188 269 116 240 351 109 333 289 307 69 15 217 353 70 45 326 105 101 95 33 343 78 279 127 274 185 201 112 105 118 104 107 89 70 48 50 52
31 58 2 329 349 7 7 357 350 352 351 348 350 347 346 344 344 345 343 344 342 339 337 338 343 344 340 338 335 329 327 303 242 94 26 17 356 3 16 358 316 68 261 322 344 318 348 338 320 326 304 359 167 86 261 344 351 24 69 337 41 55 62 34 55 76 28 50 132 122 89 313 94 38 52 228 351 258 86 139 142 99 94 70 63 48 47 50
310 350 348 338 350 354 358 358 350 349 348 349 345 346 342 342 341 341 340 338 339 341 339 340 341 340 336 328 330 318 285 283 74 92 77 355 5 14 11 353 311 274 253 261 317 313 326 282 295 300 318 245 124 210 240 32 16 357 286 27 77 32 115 60 64 61 52 14 49 51 81 254 101 78 72 312 345 87 114 26 51 103 88 82 76 63 43 51
308 307 326 342 343 343 345 347 344 343 349 346 345 340 341 337 341 338 339 339 341 343 343 338 338 336 332 328 321 293 309 229 78 59 346 332 14 55 17 321 298 297 291 311 276 268 299 321 326 293 293 256 113 233 68 81 82 316 60 117 72 322 83 83 74 44 67 43 346 76 279 35 25 214 203 234 231 146 94 72 78 80 77 78 70 74 59 54
282 301 316 338 338 338 337 338 338 338 341 341 339 342 340 342 341 340 340 342 342 341 339 338 338 336 331 324 314 267 294 30 197 148 0 318 93 64 339 290 300 307 290 278 317 337 302 230 264 254 229 257 139 77 20 40 26 335 83 56 29 48 75 110 99 49 325 56 285 252 7 21 311 301 267 72 48 127 76 101 96 86 89 97 91 71 70 59
262 280 297 323 328 332 336 337 337 339 338 339 337 339 344 345 340 342 340 339 340 338 337 340 339 337 332 310 242 269 279 95 59 228 222 309 107 109 273 278 258 283 285 280 278 310 55 311 259 309 333 285 94 91 78 17 271 216 227 143 76 343 48 253 101 119 353 16 237 44 305 281 297 265 41 104 104 106 114 102 105 108 104 96 86 75 78 76
268 277 291 294 319 330 337 342 341 341 341 342 341 342 342 343 339 337 339 336 336 337 337 339 339 334 346 330 260 245 220 109 79 149 220 250 190 183 231 248 265 302 287 348 339 333 7 277 309 17 260 328 53 331 89 298 226 279 76 54 84 354 237 115 123 176 220 225 291 75 329 250 220 248 178 124 133 130 123 127 117 119 106 94 84 87 89 76
270 277 277 285 292 321 329 337 339 340 341 342 340 337 337 336 333 332 335 334 334 333 336 339 335 336 316 280 280 315 18 85 37 124 180 196 130 130 287 205 200 268 326 308 333 311 349 23 317 42 13 349 33 336 98 45 29 17 60 297 127 215 201 179 173 196 195 214 209 216 244 257 252 80 309 128 125 131 134 122 134 131 123 99 95 88 81 88
258 267 274 281 286 302 313 328 336 339 337 335 336 333 330 331 329 329 331 331 329 331 331 336 335 330 322 246 283 263 161 268 155 137 91 147 154 167 249 347 204 273 279 71 313 269 290 15 15 342 29 274 73 356 48 226 130 279 353 341 302 275 227 174 225 218 190 205 173 210 230 248 120 109 216 119 134 135 145 139 146 143 116 110 108 85 73 80
239 257 267 273 282 282 285 317 329 329 338 333 331 328 326 324 324 325 327 326 326 323 329 331 338 331 309 298 262 248 187 222 167 120 131 261 167 183 46 38 357 303 308 111 296 18 6 336 12 335 62 35 288 107 323 73 271 326 19 300 262 245 246 217 210 243 130 218 182 194 244 79 145 101 228 144 144 151 147 147 153 140 132 122 109 99 73 71
217 229 249 262 266 273 281 281 303 318 328 333 322 321 321 319 318 323 324 322 319 321 323 328 332 310 287 290 239 246 219 60 166 128 150 247 74 62 43 30 0 16 326 319 128 51 31 352 326 291 35 338 88 171 85 14 322 11 290 301 291 258 220 206 213 213 174 234 151 180 268 231 177 226 117 136 149 166 148 149 153 136 128 123 115 104 81 63
213 221 237 250 257 266 268 271 277 296 307 332 318 314 314 309 315 320 320 318 318 318 318 322 326 265 308 249 216 33 279 147 109 133 102 84 106 85 85 63 351 11 30 345 43 40 33 334 335 300 19 313 310 96 149 280 199 298 247 230 295 268 255 212 180 120 141 159 173 119 275 233 215 129 132 134 158 164 145 151 152 140 139 141 133 115 96 98
202 209 220 241 246 255 269 282 274 281 299 297 315 307 304 306 308 315 315 314 305 298 317 314 314 273 293 263 75 277 7 6 151 173 141 167 134 93 128 109 353 102 346 79 54 357 37 339 315 301 88 335 310 257 253 181 202 240 302 147 233 337 275 76 127 154 168 136 180 171 208 319 105 125 139 164 158 169 162 158 159 150 144 142 127 129 126 110
201 204 207 219 239 255 268 291 271 274 286 289 292 295 298 298 302 308 310 305 310 317 305 300 233 263 207 226 97 105 292 292 199 162 157 186 134 130 132 157 104 74 51 66 89 344 276 349 327 237 151 60 161 174 263 247 189 214 327 252 214 198 204 207 136 171 170 260 227 160 283 244 170 156 157 169 167 179 174 157 158 155 155 153 153 149 136 125
200 202 202 212 231 252 262 279 250 262 263 288 300 270 266 279 288 297 296 291 298 290 276 265 171 293 335 257 144 162 228 199 184 115 61 317 175 178 143 117 123 126 152 61 64 213 271 205 257 327 105 177 225 214 275 308 255 193 177 273 291 198 204 176 201 199 356 135 209 187 235 83 180 157 165 166 178 192 186 163 157 166 162 153 155 155 128 132
200 198 197 204 224 247 258 262 241 254 273 282 282 271 270 275 279 288 285 284 289 203 251 330 106 160 267 78 114 211 190 116 14 114 137 321 342 116 128 139 142 118 76 127 147 243 156 238 107 359 253 252 220 208 236 256 257 243 173 219 227 225 227 219 69 241 171 168 180 230 245 254 132 162 169 183 187 183 210 166 167 164 160 157 146 144 151 152
200 198 197 188 202 241 255 261 239 248 255 273 257 266 267 279 301 300 272 241 238 248 250 232 265 264 238 112 222 177 75 114 180 126 131 99 297 178 162 174 124 142 145 127 91 228 144 222 111 241 200 190 229 208 153 219 196 220 180 211 261 246 226 229 177 185 157 221 244 196 222 250 176 177 182 185 191 188 199 180 168 160 162 150 157 157 153 133
202 201 194 187 202 235 251 251 235 246 253 274 271 266 268 277 287 260 277 160 169 114 228 184 183 183 270 182 87 91 61 95 90 127 156 177 235 221 213 81 165 150 172 194 181 197 151 269 121 271 237 207 205 206 204 221 258 284 312 309 334 335 308 276 44 160 168 180 221 236 241 247 190 184 174 194 197 195 203 165 156 166 155 159 161 148 142 138
201 198 195 190 200 223 231 234 243 245 267 281 273 232 227 180 178 168 214 216 234 217 294 149 204 76 96 140 109 28 174 234 122 235 137 189 154 159 171 181 168 218 190 189 136 212 131 186 192 199 214 219 211 213 231 238 256 283 16 285 276 282 273 302 133 135 251 248 229 241 254 260 264 181 196 186 181 205 204 174 172 167 162 166 160 155 148 135
198 195 191 190 194 213 227 232 236 243 253 276 287 274 227 231 187 210 156 224 229 255 269 251 188 225 287 101 134 164 124 190 273 133 158 174 176 151 172 186 151 207 225 211 152 355 54 210 224 220 224 219 233 220 219 238 259 264 289 296 285 253 265 260 184 199 69 156 273 257 275 266 262 257 175 164 175 204 204 185 181 176 173 166 160 148 147 116
197 195 190 189 193 206 227 229 225 233 241 267 278 254 0 67 0 102 262 248 204 224 239 252 267 254 131 159 183 223 261 121 187 148 111 196 178 190 158 195 176 204 188 212 97 77 215 222 225 227 229 243 251 259 261 227 228 236 221 251 263 255 262 289 92 124 59 75 274 268 264 265 263 259 164 178 186 203 206 188 184 171 169 163 161 151 142 130
195 195 192 188 192 199 217 223 208 197 221 226 235 244 277 92 239 201 262 251 266 210 220 224 234 242 215 134 160 226 193 183 178 171 176 204 157 236 153 194 194 218 200 185 199 175 241 236 233 233 233 238 245 193 286 320 267 261 227 199 239 271 298 284 18 134 224 179 278 331 306 279 274 264 237 195 190 175 111 138 145 163 166 162 169 160 151 154
195 193 192 190 186 197 211 204 197 176 219 231 240 245 76 110 37 322 221 247 297 222 204 205 212 211 210 166 173 180 202 207 203 183 168 173 171 182 206 186 206 207 217 197 206 207 218 227 197 202 221 237 227 198 192 204 248 212 216 233 241 225 232 218 230 230 165 251 247 290 282 274 247 247 235 133 61 80 114 89 69 23 102 126 126 136 158 159
192 191 189 187 187 197 206 177 204 204 189 228 243 238 161 156 199 354 301 283 229 252 182 216 184 222 200 59 135 183 208 244 224 146 172 178 155 149 219 185 218 220 214 202 214 239 247 236 54 198 199 196 210 234 199 180 231 244 217 208 229 236 253 259 234 105 353 283 202 170 322 265 223 224 221 156 93 177 160 157 182 173 138 114 133 151 153 147
192 189 186 185 184 200 185 203 200 174 198 211 208 205 240 176 267 22 297 261 284 198 34 211 112 234 112 156 135 169 102 233 194 161 163 198 177 169 113 217 179 222 215 207 215 230 243 153 161 172 165 177 202 212 204 163 222 231 277 213 214 226 270 321 319 2 295 243 338 166 188 275 345 310 182 176 190 202 163 204 200 181 181 169 171 164 161 150
190 188 185 182 185 182 179 229 143 167 198 234 189 165 205 210 59 335 154 259 279 161 165 67 172 280 359 159 150 131 223 220 76 124 162 186 194 8 189 192 170 260 344 189 6 245 113 147 125 136 159 172 190 215 201 167 185 243 262 351 99 114 211 241 261 225 250 331 231 175 163 274 288 247 202 179 182 204 200 210 205 193 184 180 178 170 162 161
189 187 185 183 188 187 238 141 158 187 199 80 132 143 132 84 144 182 132 313 269 105 136 238 225 336 5 164 164 171 67 121 116 200 18 199 57 29 215 198 191 184 199 171 225 18 152 181 149 177 182 186 210 210 182 172 172 191 238 107 78 96 254 303 239 254 251 355 266 172 184 297 248 277 151 156 174 209 222 209 206 196 180 176 179 164 163 161
188 187 186 187 189 194 226 244 179 197 154 136 111 119 85 92 110 126 146 219 127 137 338 144 296 142 124 166 188 174 143 12 58 79 300 19 2 152 203 222 210 180 201 207 231 174 341 183 182 180 180 215 175 18 311 164 192 206 149 63 83 93 73 290 267 247 304 253 247 169 174 221 275 187 145 193 229 224 226 205 199 189 176 174 173 160 158 154
190 189 185 186 182 194 218 247 254 136 121 114 110 98 101 97 85 128 90 234 37 256 97 74 205 174 155 166 197 164 151 64 57 159 150 158 187 336 357 326 260 241 228 217 233 257 145 160 83 198 220 196 110 54 22 69 98 150 122 95 70 83 177 64 214 84 356 243 239 172 191 178 281 228 182 168 213 216 200 155 169 168 166 173 170 159 159 155
196 191 187 179 189 183 161 216 197 146 127 119 117 105 97 38 140 166 208 216 10 228 73 153 150 141 167 157 176 161 180 113 125 148 132 192 48 328 205 73 296 353 340 310 262 139 135 72 253 265 62 94 111 64 15 357 139 131 137 123 118 348 52 298 299 170 196 263 182 186 188 186 216 286 183 194 346 204 179 171 168 171 173 172 168 164 159 156
194 194 188 183 184 145 190 195 155 157 128 131 135 121 153 138 308 188 215 67 277 192 162 172 161 164 175 174 173 170 176 144 161 176 162 180 173 182 199 193 158 186 235 210 236 113 235 188 131 65 298 140 148 97 9 18 338 164 120 118 128 215 67 278 143 216 209 244 294 212 181 211 235 226 76 190 219 15 58 164 168 169 169 169 167 164 159 155
198 199 187 188 183 197 205 110 151 153 142 148 134 160 153 156 205 205 238 150 241 108 187 139 158 172 173 177 204 172 174 182 158 189 150 179 179 221 218 211 190 184 207 188 212 124 267 174 181 169 33 229 160 171 151 267 226 175 163 161 138 189 208 240 192 223 266 258 262 199 23 255 349 276 227 229 106 15 335 171 161 163 168 168 164 160 155 157
202 196 190 192 190 198 180 151 151 143 133 133 136 157 130 190 219 197 201 197 179 329 91 124 149 171 174 185 194 155 192 210 154 183 165 172 193 205 215 229 210 227 189 144 187 190 236 307 223 142 232 165 200 205 191 175 156 198 178 170 186 176 172 220 184 215 216 214 326 268 108 235 111 242 352 48 56 358 321 89 134 140 145 147 148 147 149 157
201 198 193 191 196 200 183 165 154 152 141 144 164 170 180 213 218 187 210 206 207 137 128 151 162 166 198 213 173 175 157 176 169 156 188 171 205 209 196 204 212 208 181 182 213 120 211 232 188 180 140 161 199 211 149 114 142 208 190 190 226 213 116 230 190 23 33 9 291 229 202 209 199 347 79 89 63 12 344 99 123 132 140 146 153 161 166 166
196 201 193 189 195 197 180 167 162 160 153 162 170 194 204 191 201 164 234 170 192 162 142 142 169 183 189 200 20 174 12 112 176 166 211 210 221 217 216 198 198 194 180 200 154 173 131 230 90 99 111 173 204 176 200 143 195 200 148 215 203 43 198 282 354 68 100 4 252 145 279 287 346 271 166 172 109 97 310 145 140 149 152 158 167 169 170 168
194 191 206 196 208 171 164 167 170 170 169 173 177 205 208 238 208 109 152 179 187 143 142 186 201 177 184 200 172 190 198 94 179 166 212 158 257 229 208 217 176 194 213 182 253 215 158 193 324 124 183 2 41 314 226 47 65 103 196 217 88 77 72 149 239 46 179 234 264 151 213 231 149 261 142 152 170 183 212 192 161 162 160 170 178 174 174 171
190 202 218 210 190 158 164 166 164 174 180 182 201 204 183 224 206 206 173 159 170 179 201 209 235 173 198 191 188 176 168 181 176 178 225 162 260 172 201 214 182 195 203 208 202 270 144 250 207 295 56 6 354 37 9 65 38 129 174 249 145 245 248 223 87 250 224 235 258 217 206 227 190 222 143 204 194 197 198 197 170 174 180 183 176 173 171 160
153 171 226 213 169 163 169 166 174 175 182 188 190 218 229 231 177 212 218 213 182 170 207 212 215 191 202 201 184 174 168 198 161 195 179 193 228 180 192 181 202 194 197 191 221 230 80 203 285 326 27 132 70 168 196 189 277 106 243 337 268 89 214 149 196 245 156 263 341 261 135 258 182 222 176 196 201 191 177 191 197 189 186 180 178 175 175 172
213 242 254 159 152 162 162 169 183 188 186 190 183 221 188 219 196 202 237 244 205 193 212 224 207 239 205 227 187 168 191 198 171 197 199 172 213 175 182 184 180 183 183 188 209 137 265 134 259 70 307 116 210 193 199 173 184 228 142 239 220 180 296 101 297 199 182 222 234 287 276 258 227 178 174 193 193 184 178 191 195 191 188 186 181 177 177 178
197 259 284 149 159 154 152 175 200 202 199 187 200 211 187 203 193 198 211 232 269 11 32 214 198 210 224 212 230 167 182 196 188 197 201 217 189 235 192 175 171 179 160 176 201 159 172 130 222 110 292 223 262 178 208 198 197 191 187 198 189 166 183 174 249 156 216 190 240 206 252 253 312 353 185 184 185 179 190 184 186 190 184 184 182 180 180 179
195 220 211 161 147 145 156 194 196 196 205 184 198 196 203 129 165 189 191 212 234 240 115 239 253 226 209 232 238 177 166 193 201 203 201 217 203 227 178 179 181 149 151 173 199 191 160 160 165 193 215 213 216 288 217 103 63 243 205 233 185 203 171 186 233 218 191 232 70 222 331 262 203 344 29 32 163 184 183 179 184 182 182 184 184 181 182 181
215 220 24 153 155 154 170 207 198 198 211 219 207 243 38 189 200 174 183 187 208 213 241 224 212 208 235 232 234 237 166 218 191 215 207 210 232 208 197 183 155 158 148 12 68 322 82 136 163 253 37 26 352 180 172 61 106 333 281 196 155 200 191 204 210 149 189 215 204 244 244 271 330 34 357 28 52 88 147 175 176 175 177 184 180 174 174 172
215 218 239 202 166 163 175 204 198 207 212 208 201 215 198 210 183 176 201 190 191 182 211 212 161 217 235 138 245 248 164 231 211 214 228 196 227 57 338 201 153 164 160 202 172 172 144 206 177 166 289 302 279 305 302 24 57 222 189 207 213 217 213 267 44 7 262 221 200 168 242 229 262 27 11 12 65 82 112 147 158 164 172 177 177 173 170 169
187 314 225 229 192 173 211 183 209 200 209 210 177 210 189 224 216 211 195 192 191 206 187 226 221 143 218 134 33 41 265 230 263 235 228 223 211 9 347 9 206 180 126 17 85 164 170 155 152 198 222 233 225 214 203 199 205 212 221 211 214 212 202 168 222 214 231 238 160 220 242 251 279 131 177 97 85 82 78 100 138 165 166 168 171 167 165 166
185 216 164 210 233 258 224 204 196 191 199 202 208 216 206 215 218 206 201 216 189 204 214 155 226 208 218 109 232 239 241 251 221 283 272 235 78 351 355 336 15 64 43 73 91 152 158 185 182 200 217 230 240 81 225 130 91 193 208 186 211 213 212 208 220 199 224 221 168 227 222 244 274 216 220 184 161 164 165 173 156 153 159 160 165 165 168 174
147 215 162 192 109 236 235 277 210 186 202 172 211 163 210 215 200 176 186 222 205 205 207 206 159 176 211 211 228 237 233 240 175 232 227 226 46 334 18 47 37 34 38 78 350 78 93 183 214 215 221 235 241 236 200 154 183 207 196 205 210 203 206 201 201 221 192 98 242 235 166 228 222 217 210 197 194 181 182 189 180 165 165 162 162 158 146 147
225 194 183 186 169 194 209 233 212 227 206 181 195 171 205 205 207 206 174 220 207 200 212 213 213 212 208 204 211 225 222 228 216 233 228 183 103 199 11 357 223 11 64 40 324 135 154 212 225 211 237 244 252 247 211 230 197 202 203 204 203 205 202 205 222 229 169 200 236 224 169 217 219 194 202 198 182 189 189 191 184 158 130 128 141 157 171 175
306 342 298 113 181 223 227 253 203 208 218 186 204 199 189 197 210 207 192 187 209 195 198 215 210 215 212 208 201 221 215 216 231 229 222 178 198 135 197 324 283 86 114 74 332 256 115 245 231 177 244 254 253 252 239 246 264 256 222 214 211 202 206 208 220 222 214 227 237 213 205 218 211 194 190 199 188 178 159 135 130 149 165 158 157 171 179 178
247 227 247 135 64 196 200 167 124 157 240 196 200 203 200 202 213 207 203 169 189 212 198 216 225 212 207 207 208 217 219 217 220 226 213 188 204 190 220 193 142 343 130 172 154 286 169 243 178 164 243 252 246 247 245 236 244 249 247 244 222 215 214 214 220 228 228 243 247 244 268 256 264 179 182 161 123 107 113 141 163 162 157 164 169 178 180 184
269 101 324 357 203 193 162 165 174 191 204 212 222 204 213 211 222 204 211 196 195 191 194 211 223 217 197 204 212 225 231 225 231 235 178 170 213 200 177 248 142 144 159 147 149 184 169 260 53 142 216 253 245 217 237 240 266 266 260 243 237 220 214 212 221 223 212 226 234 237 251 250 215 153 135 122 137 144 153 154 151 161 170 165 171 180 182 191
75 87 123 20 297 198 195 155 180 159 217 189 189 215 204 217 229 170 249 242 221 218 203 218 231 212 212 215 220 225 231 231 244 183 178 208 86 72 185 162 158 154 163 184 104 142 191 153 169 173 222 242 259 163 228 229 264 273 251 239 230 223 216 220 227 224 218 217 227 219 228 224 191 151 128 176 164 170 139 156 146 146 169 175 177 184 192 195